Flag for Vietnam Weather past 2 weeks in Hanoi, Vietnam

Now
90 °F

Sunny.


Feels Like: 108 °F
Forecast: 83 / 104 °F
Wind: 7 mph from East

Location: Ha Noi Airport

Current Time: May 27, 2015 at 9:04:48 AM

Latest Report: May 27, 2015 at 8:30 AM


Visibility: 10 mi

Pressure: 29.65 "Hg

Humidity: 75%

Dew point: 81 °F

Location of HanoiLocation

Historic Weather in Hanoi — Graph

°F

Hanoi temperature yesterday

Maximum temperature yesterday: 99 °F (at 1:30 PM)
Minimum temperature yesterday: 82 °F (at 4:00 AM)
Average temperature yesterday: 90 °F

Past Weeks' High & Low Weather Summary

 TemperatureHumidityPressure
High99 °F (May 19, 3:30 PM)100% (May 16, 6:00 AM)29.92 "Hg (May 16, 6:00 AM)
Low73 °F (May 16, 5:30 AM)42% (May 23, 3:30 PM)29.50 "Hg (May 19, 5:00 PM)
Average85 °F76%29.66 "Hg
* Reported May 12 8:00 AM — May 27 8:00 AM, Hanoi, Weather by CustomWeather, © 2015

Note: Actual official high and low records may vary slightly from our data, if they occured in-between our weather recording intervals... More about our weather records

Advertising

Hanoi weather history for previous 24 hours

 ConditionsComfort  
Time TempWeatherWind HumidityBarometerVisibility
8:00 AM
Wed, May 27
88 °FPassing clouds.7 mph79%29.65 "HgN/A
7:30 AM88 °FSunny.7 mph79%29.62 "Hg10 mi
7:00 AM86 °FSunny.7 mph84%29.62 "Hg10 mi
6:30 AM84 °FSunny.6 mph89%29.62 "Hg10 mi
6:00 AM84 °FClear.7 mph89%29.62 "Hg6 mi
5:30 AM84 °FClear.8 mph89%29.59 "Hg6 mi
5:00 AM84 °FClear.8 mph89%29.59 "Hg6 mi
4:30 AM84 °FClear.8 mph89%29.59 "Hg6 mi
4:00 AM84 °FClear.7 mph89%29.59 "Hg5 mi
3:30 AM84 °FClear.7 mph89%29.59 "Hg6 mi
3:00 AM84 °FClear.7 mph89%29.56 "Hg6 mi
2:30 AM84 °FClear.7 mph89%29.56 "Hg6 mi
2:00 AM84 °FClear.8 mph84%29.59 "Hg6 mi
1:30 AM86 °FClear.9 mph79%29.59 "Hg10 mi
1:00 AM86 °FClear.8 mph79%29.59 "Hg10 mi
12:30 AM86 °FClear.9 mph79%29.62 "Hg10 mi
12:00 AM86 °FClear.10 mph79%29.62 "Hg10 mi
11:30 PM
Tue, May 26
86 °FClear.10 mph79%29.62 "Hg10 mi
11:00 PM86 °FClear.12 mph79%29.62 "Hg10 mi
10:30 PM86 °FClear.12 mph79%29.62 "Hg10 mi
10:00 PM88 °FClear.8 mph70%29.65 "Hg10 mi
9:30 PM88 °FClear.10 mph70%29.65 "Hg10 mi
9:00 PM88 °FClear.10 mph70%29.62 "Hg10 mi
8:30 PM90 °FClear.13 mph67%29.62 "Hg10 mi
8:00 PM90 °FPassing clouds.14 mph67%29.59 "HgN/A
7:30 PM91 °FPassing clouds.14 mph63%29.56 "HgN/A
7:00 PM93 °FPassing clouds.13 mph63%29.56 "HgN/A
6:30 PM93 °FPartly sunny.10 mph63%29.56 "HgN/A
6:00 PM95 °FScattered clouds.12 mph53%29.53 "HgN/A
5:30 PM97 °FSunny.12 mph53%29.53 "Hg10 mi
5:00 PM97 °FSunny.14 mph50%29.53 "Hg10 mi
4:30 PM99 °FSunny.15 mph50%29.53 "Hg10 mi
4:00 PM99 °FSunny.12 mph50%29.53 "Hg10 mi
3:30 PM99 °FPassing clouds.9 mph50%29.53 "HgN/A
3:00 PM99 °FPassing clouds.9 mph50%29.56 "HgN/A
2:30 PM99 °FPassing clouds.8 mph47%29.56 "HgN/A
2:00 PM99 °FPartly sunny.7 mph44%29.59 "HgN/A
1:30 PM99 °FPartly sunny.6 mph44%29.59 "HgN/A
1:00 PM97 °FPartly sunny.6 mph47%29.59 "HgN/A
12:30 PM95 °FPartly sunny.6 mph56%29.62 "HgN/A
12:00 PM95 °FSunny.3 mph56%29.62 "Hg10 mi
11:30 AM95 °FSunny.5 mph56%29.65 "Hg10 mi
11:00 AM95 °FPassing clouds.7 mph53%29.65 "HgN/A
10:30 AM93 °FPassing clouds.7 mph63%29.65 "HgN/A
10:00 AM93 °FSunny.5 mph59%29.68 "Hg10 mi
9:30 AM91 °FPassing clouds.6 mph63%29.68 "HgN/A
9:00 AM90 °FPassing clouds.7 mph71%29.68 "HgN/A
Weather by CustomWeather, © 2015

See weather overviewHow to use our weather pages